TimeCST,TemperatureF,Dew PointF,Humidity,Sea Level PressureIn,VisibilityMPH,Wind Direction,Wind SpeedMPH,Gust SpeedMPH,PrecipitationIn,Events,Conditions,WindDirDegrees,DateUTC
12:15 AM,19.4,17.6,93,30.12,7.0,North,11.5,-,N/A,,Overcast,360,2012-11-29 06:15:00
12:36 AM,19.4,15.8,86,30.11,10.0,North,15.0,-,N/A,,Overcast,360,2012-11-29 06:36:00
12:55 AM,17.6,15.8,93,30.11,10.0,North,15.0,-,N/A,,Overcast,10,2012-11-29 06:55:00
1:15 AM,17.6,14.0,86,30.11,10.0,NNE,11.5,-,N/A,,Overcast,20,2012-11-29 07:15:00
1:35 AM,17.6,14.0,86,30.11,10.0,NNE,10.4,16.1,N/A,,Overcast,30,2012-11-29 07:35:00
1:55 AM,15.8,14.0,93,30.11,10.0,NNE,10.4,17.3,N/A,,Overcast,30,2012-11-29 07:55:00
2:15 AM,15.8,14.0,93,30.13,10.0,NNE,8.1,-,N/A,,Overcast,30,2012-11-29 08:15:00
2:35 AM,15.8,12.2,86,30.14,10.0,NNE,10.4,-,N/A,,Overcast,20,2012-11-29 08:35:00
2:55 AM,15.8,12.2,86,30.14,10.0,NNE,10.4,-,N/A,,Overcast,30,2012-11-29 08:55:00
3:15 AM,15.8,12.2,86,30.14,10.0,NE,10.4,18.4,N/A,,Overcast,50,2012-11-29 09:15:00
3:35 AM,14.0,10.4,86,30.14,10.0,ENE,13.8,18.4,N/A,,Overcast,60,2012-11-29 09:35:00
3:55 AM,12.2,10.4,92,30.14,10.0,NE,8.1,-,N/A,,Overcast,40,2012-11-29 09:55:00
4:15 AM,12.2,10.4,92,30.13,10.0,NE,11.5,17.3,N/A,,Overcast,40,2012-11-29 10:15:00
4:35 AM,12.2,8.6,85,30.12,10.0,NE,10.4,16.1,N/A,,Overcast,50,2012-11-29 10:35:00
4:55 AM,12.2,8.6,85,30.13,10.0,NE,10.4,-,N/A,,Overcast,50,2012-11-29 10:55:00
5:15 AM,12.2,8.6,85,30.15,10.0,NE,10.4,-,N/A,,Overcast,50,2012-11-29 11:15:00
5:35 AM,12.2,8.6,85,30.14,10.0,ENE,10.4,16.1,N/A,,Overcast,70,2012-11-29 11:35:00
5:55 AM,12.2,8.6,85,30.14,10.0,ENE,8.1,-,N/A,,Overcast,60,2012-11-29 11:55:00
6:15 AM,12.2,8.6,85,30.14,10.0,NE,8.1,-,N/A,,Mostly Cloudy,50,2012-11-29 12:15:00
6:35 AM,10.4,6.8,85,30.15,10.0,NE,8.1,-,N/A,,Mostly Cloudy,40,2012-11-29 12:35:00
6:55 AM,10.4,6.8,85,30.15,10.0,NNE,8.1,-,N/A,,Scattered Clouds,30,2012-11-29 12:55:00
7:15 AM,10.4,6.8,85,30.14,10.0,NE,8.1,-,N/A,,Scattered Clouds,40,2012-11-29 13:15:00
7:35 AM,10.4,6.8,85,30.16,10.0,NE,8.1,-,N/A,,Overcast,40,2012-11-29 13:35:00
7:55 AM,10.4,6.8,85,30.16,10.0,NE,9.2,-,N/A,,Scattered Clouds,50,2012-11-29 13:55:00
8:15 AM,10.4,6.8,85,30.16,10.0,NE,6.9,-,N/A,,Clear,50,2012-11-29 14:15:00
8:35 AM,10.4,6.8,85,30.17,10.0,ENE,8.1,-,N/A,,Clear,60,2012-11-29 14:35:00
8:55 AM,10.4,6.8,85,30.19,10.0,NE,8.1,-,N/A,,Clear,50,2012-11-29 14:55:00
9:15 AM,10.4,8.6,92,30.19,10.0,NE,10.4,-,N/A,,Clear,50,2012-11-29 15:15:00
9:35 AM,12.2,8.6,85,30.19,10.0,NE,9.2,-,N/A,,Clear,50,2012-11-29 15:35:00
9:55 AM,12.2,8.6,85,30.19,10.0,NE,9.2,-,N/A,,Clear,50,2012-11-29 15:55:00
10:15 AM,12.2,8.6,85,30.20,10.0,ENE,11.5,-,N/A,,Clear,60,2012-11-29 16:15:00
10:35 AM,14.0,8.6,79,30.20,10.0,ENE,10.4,-,N/A,,Clear,70,2012-11-29 16:35:00
10:55 AM,15.8,8.6,73,30.19,10.0,ENE,10.4,16.1,N/A,,Clear,60,2012-11-29 16:55:00
11:15 AM,15.8,10.4,79,30.19,10.0,ENE,9.2,-,N/A,,Clear,60,2012-11-29 17:15:00
11:35 AM,15.8,10.4,79,30.17,10.0,NE,9.2,-,N/A,,Clear,50,2012-11-29 17:35:00
11:55 AM,17.6,8.6,68,30.16,10.0,ENE,10.4,16.1,N/A,,Clear,70,2012-11-29 17:55:00
12:16 PM,17.6,10.4,73,30.16,10.0,ENE,10.4,-,N/A,,Clear,60,2012-11-29 18:16:00
12:35 PM,17.6,10.4,73,30.16,10.0,ENE,9.2,-,N/A,,Clear,60,2012-11-29 18:35:00
12:55 PM,17.6,10.4,73,30.16,10.0,ENE,9.2,-,N/A,,Clear,60,2012-11-29 18:55:00
1:15 PM,17.6,10.4,73,30.16,10.0,ENE,8.1,-,N/A,,Clear,60,2012-11-29 19:15:00
1:35 PM,19.4,10.4,68,30.15,10.0,ENE,8.1,-,N/A,,Clear,70,2012-11-29 19:35:00
1:55 PM,19.4,8.6,63,30.15,10.0,ENE,6.9,-,N/A,,Clear,60,2012-11-29 19:55:00
2:16 PM,19.4,8.6,63,30.16,10.0,NE,6.9,-,N/A,,Clear,50,2012-11-29 20:16:00
2:35 PM,19.4,8.6,63,30.16,10.0,ENE,6.9,-,N/A,,Clear,60,2012-11-29 20:35:00
2:55 PM,17.6,8.6,68,30.15,10.0,NE,9.2,-,N/A,,Mostly Cloudy,40,2012-11-29 20:55:00
3:16 PM,17.6,8.6,68,30.14,10.0,NE,10.4,16.1,N/A,,Scattered Clouds,50,2012-11-29 21:16:00
3:35 PM,17.6,8.6,68,30.14,10.0,ENE,10.4,-,N/A,,Clear,60,2012-11-29 21:35:00
3:55 PM,17.6,8.6,68,30.14,10.0,ENE,9.2,-,N/A,,Clear,70,2012-11-29 21:55:00
4:16 PM,17.6,8.6,68,30.15,10.0,ENE,8.1,-,N/A,,Scattered Clouds,60,2012-11-29 22:16:00
4:35 PM,17.6,8.6,68,30.14,10.0,NE,9.2,-,N/A,,Scattered Clouds,50,2012-11-29 22:35:00
4:55 PM,15.8,8.6,73,30.14,10.0,ENE,8.1,16.1,N/A,,Clear,60,2012-11-29 22:55:00
5:16 PM,15.8,8.6,73,30.14,10.0,ENE,11.5,18.4,N/A,,Clear,70,2012-11-29 23:16:00
5:35 PM,15.8,8.6,73,30.14,10.0,ENE,11.5,-,N/A,,Scattered Clouds,70,2012-11-29 23:35:00
5:55 PM,15.8,8.6,73,30.14,10.0,ENE,10.4,-,N/A,,Mostly Cloudy,70,2012-11-29 23:55:00
6:16 PM,15.8,10.4,79,30.15,10.0,ENE,11.5,17.3,N/A,,Scattered Clouds,60,2012-11-30 00:16:00
6:35 PM,15.8,10.4,79,30.16,10.0,ENE,10.4,17.3,N/A,,Mostly Cloudy,70,2012-11-30 00:35:00
6:55 PM,15.8,10.4,79,30.16,10.0,East,9.2,16.1,N/A,,Overcast,80,2012-11-30 00:55:00
7:16 PM,15.8,10.4,79,30.16,10.0,East,8.1,-,N/A,,Overcast,80,2012-11-30 01:16:00
7:35 PM,15.8,10.4,79,30.15,10.0,East,9.2,-,N/A,,Overcast,80,2012-11-30 01:35:00
7:55 PM,15.8,10.4,79,30.15,10.0,East,8.1,-,N/A,,Overcast,80,2012-11-30 01:55:00
8:16 PM,15.8,10.4,79,30.16,10.0,East,8.1,-,N/A,,Overcast,90,2012-11-30 02:16:00
8:35 PM,17.6,12.2,79,30.16,10.0,East,8.1,-,N/A,,Overcast,90,2012-11-30 02:35:00
8:55 PM,17.6,12.2,79,30.16,10.0,East,8.1,-,N/A,,Overcast,90,2012-11-30 02:55:00
9:16 PM,17.6,12.2,79,30.15,10.0,East,9.2,-,N/A,,Overcast,90,2012-11-30 03:16:00
9:35 PM,17.6,14.0,86,30.16,10.0,East,8.1,-,N/A,,Overcast,80,2012-11-30 03:35:00
9:55 PM,17.6,14.0,86,30.16,10.0,East,8.1,-,N/A,,Overcast,100,2012-11-30 03:55:00
10:15 PM,17.6,14.0,86,30.17,10.0,East,3.5,-,N/A,,Overcast,90,2012-11-30 04:15:00
10:35 PM,17.6,14.0,86,30.17,10.0,East,8.1,-,N/A,,Overcast,80,2012-11-30 04:35:00
10:56 PM,17.6,15.8,93,30.17,10.0,East,6.9,-,N/A,,Overcast,80,2012-11-30 04:56:00
11:15 PM,17.6,15.8,93,30.16,10.0,East,9.2,-,N/A,,Overcast,80,2012-11-30 05:15:00
11:35 PM,17.6,15.8,93,30.16,10.0,East,9.2,-,N/A,,Overcast,90,2012-11-30 05:35:00
11:55 PM,17.6,15.8,93,30.17,10.0,East,8.1,-,N/A,,Overcast,90,2012-11-30 05:55:00